Content
SEND FEEDBACK

Daily
Averages
Monthly
Summary
South Korea

TAEJON, SOUTH KOREA


Home > Asia > South Korea
Elevation: 256 feet     Latitude: 36 18N     Longitude: 127 24E

WEATHER
 
SELECT A DAY
Number of Records: 183,348;   Date Range: 4/22/97 - 12/18/14
 
SHARE

PRINT THIS DATA

[ ← Previous Day ]
WEATHER ALMANAC - FEBRUARY 13, 2013
[ Next Day → ]
[ °C ]   °F
Weather ElementAverageHighLow
Temperature26 °F37.4 °F (3:00 pm)15.8 °F (1:00 am)
Dewpoint19.5 °F24.8 °F (10:00 am)15.8 °F (1:00 am)
Humidity79.6 %100 % (1:00 am)45 % (4:00 pm)
Barometer30.36 in30.39 in (7:13 am)30.30 in (4:00 pm)
Wind Speed3 mph8.1 mph (4:00 pm)
Wind Gust3.5 mph (2:00 pm)
Weather ElementAverage
Visibility4.2 mi
Wind DirectionS (180.8 °)

Weather ElementTotal
Precipitation---
Heating Degree Days38.4 (Base 65)
Averaged from 26 records on February 13, 2013
WEATHER CONDITIONS BREAKOUT
WIND DIRECTION BREAKOUT
WEATHER BY HOUR - FEBRUARY 13, 2013
[ °C ]   °F
Local TimeTemperatureDewpointHumidityBarometerVisibilityWind DirectionWind SpeedGust SpeedPrecipitationEventsConditions
1:00 AM15.8 °F15.8 °F100 %30.33 in5.0 miENE (70°)2.3 mphPartly Cloudy
2:00 AM15.8 °F15.8 °F100 %30.34 in5.0 miEast (100°)3.5 mphScattered Clouds
3:00 AM19.4 °F19.4 °F100 %30.36 in3.7 miNE (50°)3.5 mphMostly Cloudy
4:00 AM19.4 °F19.4 °F100 %30.35 inWNW (290°)1.2 mphSnowLight Snow
5:00 AM19.4 °F19.4 °F100 %30.38 inWSW (250°)1.2 mphScattered Clouds
6:00 AM19.4 °F19.4 °F100 %30.36 inEast (90°)1.2 mphScattered Clouds
6:15 AM17.6 °F15.8 °F93 %30.36 in2.5 miWest (260°)1.2 mphScattered Clouds
7:00 AM17.6 °F17.6 °F100 %30.36 in2.5 miENE (60°)1.2 mphScattered Clouds
7:13 AM19.4 °F17.6 °F93 %30.39 inSouth (180°)1.2 mphMostly Cloudy
8:00 AM17.6 °F17.6 °F100 %30.39 inSSW (210°)1.2 mphPartly Cloudy
9:00 AM21.2 °F21.2 °F100 %30.39 inEast (80°)3.5 mphPartly Cloudy
9:18 AM23.0 °F23.0 °F100 %30.39 in1.7 miENE (70°)3.5 mphPartly Cloudy
10:00 AM28.4 °F24.8 °F86 %30.39 inENE (60°)2.3 mphPartly Cloudy
11:00 AM30.2 °F23.0 °F75 %30.39 in3.7 miWest (280°)3.5 mphPartly Cloudy
12:00 PM32.0 °F17.6 °F55 %30.39 in5.0 miNNW (340°)3.5 mphPartly Cloudy
1:00 PM33.8 °F23.0 °F65 %30.36 in5.0 miNNW (330°)3.5 mphPartly Cloudy
2:00 PM35.6 °F19.4 °F52 %30.36 in5.0 miCalm (320°)3.5 mphPartly Cloudy
3:00 PM37.4 °F21.2 °F52 %30.33 in5.0 miSW (230°)4.6 mphPartly Cloudy
4:00 PM37.4 °F17.6 °F45 %30.30 in5.0 miWest (280°)8.1 mph
5:00 PM37.4 °F17.6 °F45 %30.30 in5.0 miWNW (300°)4.6 mph
6:00 PM33.8 °F19.4 °F56 %30.33 in5.0 miNW (310°)4.6 mph
7:00 PM32.0 °F19.4 °F60 %30.36 in5.0 miNorth (10°)3.5 mph
8:00 PM30.2 °F19.4 °F64 %30.36 in5.0 miESE (110°)4.6 mph
9:00 PM28.4 °F19.4 °F69 %30.33 in3.7 miESE (110°)3.5 mph
10:00 PM26.6 °F21.2 °F80 %30.30 in3.7 miEast (90°)4.6 mph
11:00 PM26.6 °F21.2 °F80 %30.36 in3.7 miSW (220°)1.2 mph
Hourly data recorded from RKTU, located miles away from Taejon, South Korea







STORIES FROM OUR PARTNERS